Back to catalog

COSMOS 397 DEB

AliveLEO
NORAD 5097·DEBRIS·🇷🇺 Russia

Launched Feb 25, 1971 from Baikonur Cosmodrome

Loading…

Next Passes (next 24 hours)

TLE

FreshSource: Space-Track

Epoch: Sep 14, 2026, 13:24 UTC

1 05097U 71015W   26257.55851394  .00000408  00000-0  17880-3 0  9996
2 05097  65.7400 356.4663 0750579  66.1135 301.6685 13.37238112649158

Track COSMOS 397 DEB in real time with AllMySat

Download on the App Store